Location: The Saddle
(36.8333°N, 80.3417°W)
Time: 07:20:38
(UTC-05:00)

Vanguard 2 Rocket - Pass Details

Date: 19 December 2023
Orbit: 555 x 3309 km, 32.9° (Epoch: 02 March)

Event Time Altitude Azimuth Distance (km) Brightness Sun altitude
Rises 09:03:35 0° 208° (SSW) 3,497 10.1 14.3°
Reaches altitude 10° 09:06:07 10° 195° (SSW) 2,831 9.9 14.6°
Maximum altitude 09:11:55 27° 139° (SE) 2,419 11.3 15.4°
Drops below altitude 10° 09:20:49 10° 88° (E) 4,481 11.1 16.7°
Sets 09:26:05 0° 79° (ENE) 5,996 11.5 17.4°
